Location: Hermaringen
(48.5952°N, 10.2585°E)
Time: 19:20:19
(UTC+00:00)

Altair - Pass Details

Date: 16 February 2026
Orbit: 1502 x 1682 km, 47.2° (Epoch: 10 March)

Event Time Altitude Azimuth Distance (km) Brightness Sun altitude
Rises 05:51:35 0° 249° (WSW) 4,643 9.5 -6.2°
Reaches altitude 10° 05:54:34 10° 248° (WSW) 3,675 9.0 -5.7°
Maximum altitude 06:03:49 76° 165° (SSE) 1,594 7.7 -4.2°
Drops below altitude 10° 06:13:25 10° 82° (E) 3,806 10.9 -2.7°
Sets 06:16:34 0° 81° (E) 4,817 11.5 -2.2°
